Location: Praha
(50.0830°N, 14.4670°E)
Time: 05:24:49
(UTC+02:00)

ISS - Pass Details

Date: 11 July 2024
Orbit: 409 x 423 km, 51.6° (Epoch: 24 July)

Event Time Altitude Azimuth Distance (km) Brightness Sun altitude
Rises 03:50:51 0° 285° (WNW) 2,347 -0.2 -9.3°
Reaches altitude 10° 03:53:11 10° 271° (W) 1,484 -1.3 -9.1°
Maximum altitude 03:55:54 24° 216° (SW) 916 -2.6 -8.8°
Drops below altitude 10° 03:58:38 10° 161° (SSE) 1,484 -1.3 -8.6°
Sets 04:00:58 0° 147° (SSE) 2,347 -0.1 -8.3°
